www.pogodaiklimat.ru

Погода и климат >> Архив погоды >> Финляндия >> Орренгрунд


ПОГОДА в Орренгрунде

  • Прогноз погоды в Орренгрунде
  • Монитор погоды в Орренгрунде

АРХИВ ПОГОДЫ в Орренгрунде

Время (UTC), дата Ветер
(напр.,м/с)
 
Видим.   Явления Облачность Т
(С)
Тd
(С)
f
(%)
Тe
(С)
Тes
(С)
Комфортность P
(гПа)
Po
(гПа)
Тmin
(С)
Tmax
(С)
R
(мм)
R24
(мм)
S
(см)
22 11.06 СВ 8-10
{12}
20 км ясно +15.6 +11.0 74 +14 +14 1022.0 1021.5
23 11.06 СВ 9-11
{12}
20 км ясно +15.2 +9.1 67 +13 +13 1022.6 1022.2
00 12.06 СВ 9-11
{11}
20 км 3/0
[]
+14.6 +7.8 64 +12 +12 1023.3 1022.9
01 12.06 СВ 9 20 км 1/0
[]
+13.7 +7.9 68 +11 +11 1023.4 1023.0
02 12.06 СВ 9 20 км 6/0
[]
+13.2 +7.4 68 +10 +10 1023.9 1023.5
03 12.06 СВ 9-10
{11}
20 км 5/0
[]
+12.8 +8.1 73 +10 +10 1023.9 1023.4
04 12.06 СВ 8 20 км ясно +13.0 +7.9 71 +10 +11 1024.2 1023.8
05 12.06 СВ 8 20 км 8/0
[]
+13.4 +7.2 66 +11 +11 1024.8 1024.3
06 12.06 СВ 8-9
{10}
20 км 3/0
[]
+14.1 +6.3 59 +12 +13 1025.2 1024.8 +12.7 +16.5
07 12.06 СВ 8 20 км ясно +14.1 +7.3 64 +12 +13 1025.2 1024.8
08 12.06 СВ 8-9
{10}
20 км 8/0
[]
+14.4 +7.5 63 +12 +13 1025.7 1025.2
09 12.06 В 6-9
{9}
20 км ясно +15.9 +8.0 59 +15 +20 1025.8 1025.4
10 12.06 В 7 н/о ясно +15.6 +7.7 59 +14 +18 1026.1 1025.6
11 12.06 В 5 н/о н/о +15.7 +8.2 61 +15 +15 1026.1 1025.7
12 12.06 В 7-10
{11}
20 км ясно +15.7 +7.9 60 +14 +18 1026.2 1025.7
13 12.06 В 7 20 км ясно +15.6 +8.2 61 +14 +17 1026.1 1025.7
14 12.06 В 8 20 км ясно +15.3 +7.2 58 +13 +15 1026.0 1025.6
15 12.06 В 7-11
{12}
20 км ясно +15.1 +6.8 58 +13 +15 1025.7 1025.3
16 12.06 В 7-11
{11}
20 км ясно +14.5 +7.2 62 +13 +13 1025.5 1025.1
17 12.06 В 7-11
{12}
20 км 6/0
[]
+13.8 +7.6 66 +12 +12 1025.5 1025.0
18 12.06 В 8-12
{12}
20 км 1/0
[]
+13.5 +6.7 63 +11 +11 1025.6 1025.2 +13.4 +16.6
19 12.06 В 10 20 км 4/0
[]
+13.3 +5.4 59 +10 +10 1025.6 1025.1
20 12.06 В 8-13
{13}
20 км 5/0
[]
+13.0 +5.0 58 +10 +10 1025.8 1025.3
21 12.06 В 9-12
{13}
20 км 9/0
[]
+12.6 +4.6 58 +10 +10 1025.9 1025.5
22 12.06 В 8 20 км 9/0
[]
+12.4 +5.0 61 +10 +10 1026.0 1025.6
23 12.06 В 8 20 км 9/0
[]
+12.3 +6.1 66 +9 +9 1025.4 1025.0
00 13.06 В 9-13
{13}
20 км 9/0
[]
+12.2 +7.8 74 +9 +9 1025.3 1024.9
01 13.06 В 10-15
{15}
20 км 5/0
[]
+12.3 +8.4 77 +9 +9 1024.7 1024.3
02 13.06 В 10-14
{15}
20 км 8/0
[]
+12.3 +7.4 72 +9 +9 1024.5 1024.0
03 13.06 В 10-15
{15}
20 км 5/0
[]
+12.2 +7.6 73 +9 +9 1024.1 1023.7
04 13.06 В 9 20 км ясно +12.4 +7.4 72 +9 +9 1024.2 1023.8
05 13.06 В 11-15
{15}
20 км 6/0
[]
+12.1 +7.6 74 +8 +8 1023.9 1023.5
06 13.06 В 10-15
{15}
20 км ясно +12.3 +7.9 74 +9 +9 1022.2 1021.7 +11.9 +13.5
07 13.06 В 10-14
{17}
20 км ясно +12.7 +8.1 74 +9 +10 1021.9 1021.4
08 13.06 В 8-12
{15}
20 км 10/0
[]
+12.1 +8.4 78 +9 +10 1023.5 1023.1
09 13.06 В 8-12
{13}
20 км 10/0
[]
+12.6 +9.0 79 +10 +11 1022.8 1022.4
10 13.06 В 10 20 км 8/0
[]
+14.2 +9.5 73 +11 +12 1021.8 1021.4
11 13.06 В 10 20 км 3/0
[]
+13.9 +9.7 76 +11 +12 1021.9 1021.4
12 13.06 В 10-14
{15}
20 км 9/0
[]
+13.7 +10.1 79 +11 +11 1021.0 1020.6
13 13.06 В 9 11 км дождь 8/0
[]
+12.8 +10.8 88 +10 +10 1020.8 1020.4
14 13.06 В 7-12
{12}
20 км слаб. ливневой дождь 5/0
[]
+13.4 +10.7 84 +11 +13 1020.2 1019.8
15 13.06 В 8-12
{13}
20 км в посл. час дождь 5/0
[]
+13.6 +10.3 80 +11 +12 1019.2 1018.7
16 13.06 В 8 20 км 3/0
[]
+14.1 +10.0 76 +12 +12 1018.8 1018.4
17 13.06 В 7-10
{14}
15 км слаб. ливневой дождь 8/0
[]
+13.2 +10.7 85 +11 +11 1019.2 1018.8
18 13.06 В 9-12
{12}
20 км в посл. час дождь 10/0
[]
+13.1 +11.3 89 +10 +10 1017.5 1017.1 +12.1 +14.8
19 13.06 В 11 20 км 5/0
[]
+13.6 +11.2 85 +10 +10 1017.0 1016.6
20 13.06 В 9 20 км ясно +13.4 +11.6 89 +10 +10 1016.3 1015.8
21 13.06 В 7-8
{11}
20 км 9/0
[]
+12.9 +11.7 92 +10 +10 1016.6 1016.1
22 13.06 В 4 20 км слаб. дождь 4/0
[]
+12.7 +12.0 96 +11 +11 1016.8 1016.4
23 13.06 В 4-5
{7}
20 км в посл. час дождь 5/0
[]
+12.8 +11.7 93 +11 +11 1016.1 1015.7
00 14.06 В 6-8
{8}
20 км 9/0
[]
+12.8 +11.7 93 +10 +10 1015.5 1015.1
01 14.06 В 5 20 км 9/0
[]
+12.6 +11.6 94 +10 +10 1015.5 1015.1
02 14.06 В 6 20 км 8/0
[]
+12.6 +11.7 94 +10 +10 1015.2 1014.8
03 14.06 В 5-7
{7}
20 км 9/0
[]
+13.1 +12.1 94 +11 +11 1015.2 1014.7
04 14.06 В 5 20 км 10/0
[]
+13.1 +12.0 93 +11 +12 1014.9 1014.5
05 14.06 В 5-7
{7}
20 км 10/0
[]
+13.5 +11.7 89 +11 +13 1015.2 1014.7
06 14.06 В 5-7
{8}
20 км 10/0
[]
+13.2 +11.7 91 +11 +13 1015.6 1015.1 +12.4 +13.9
07 14.06 В 6-9
{9}
20 км 10/0
[]
+13.3 +11.6 89 +11 +13 1015.5 1015.1
08 14.06 В 5 20 км 10/0
[]
+13.4 +11.5 88 +11 +14 1016.2 1015.7
09 14.06 В 5-8
{9}
20 км 10/0
[]
+13.8 +11.5 86 +12 +15 1016.7 1016.3
10 14.06 В 4 20 км 10/0
[]
+14.2 +11.8 85 +13 +18 1017.2 1016.8
11 14.06 В 5 20 км 10/0
[]
+13.8 +11.3 85 +12 +16 1017.2 1016.8
12 14.06 В 6-7
{7}
20 км 10/0
[]
+13.7 +10.9 83 +12 +14 1017.4 1017.0
13 14.06 В 5-6
{8}
20 км 10/0
[]
+13.4 +11.0 85 +11 +14 1017.4 1016.9
14 14.06 В 5 20 км 10/0
[]
+13.3 +11.4 88 +11 +13 1017.0 1016.5
15 14.06 ЮЗ 4-6
{6}
3300 м дымка 10/0
[]
+12.7 +12.0 96 +11 +12 1016.8 1016.4
16 14.06 ЮЗ 3 9000 м дымка 10/0
[]
+12.9 +12.2 96 +11 +13 1016.4 1015.9
17 14.06 ЮЗ 5 5000 м дымка 10/0
[]
+12.2 +11.7 97 +10 +10 1016.2 1015.8
18 14.06 ЮЗ 4-6
{7}
2200 м дымка 10/0
[]
+11.9 +11.6 98 +10 +10 1015.7 1015.3 +11.9 +14.7
19 14.06 З 3 1900 м дымка 10/0
[]
+11.8 +11.6 99 +10 +10 1016.0 1015.5
20 14.06 З 4 5000 м дымка 10/0
[]
+11.9 +11.7 99 +10 +10 1016.0 1015.6
21 14.06 З 6-8
{8}
3700 м дымка 10/0
[]
+11.9 +11.8 99 +9 +9 1016.2 1015.8
22 14.06 ЮЗ 3-5
{8}
3400 м дымка 9/0
[]
+12.1 +12.0 99 +10 +10 1016.1 1015.6
23 14.06 З 7 9000 м дымка 10/0
[]
+12.8 +12.7 99 +10 +10 1015.4 1015.0
00 15.06 З 6-9
{9}
9000 м дымка 10/0
[]
+12.3 +12.0 98 +9 +9 1015.6 1015.2
01 15.06 З 6 18 км 10/0
[]
+13.0 +12.4 96 +10 +10 1015.4 1015.0
02 15.06 З 8-12
{12}
20 км 10/0
[]
+13.7 +11.4 86 +11 +11 1015.6 1015.1
03 15.06 З 7-10
{11}
20 км 10/0
[]
+13.3 +11.1 87 +11 +11 1015.7 1015.3
04 15.06 З 6 20 км 10/0
[]
+13.2 +11.1 87 +11 +11 1016.0 1015.5
05 15.06 З 6 20 км 4/0
[]
+13.3 +11.0 86 +11 +12 1015.9 1015.5
06 15.06 З 7-8
{8}
20 км 3/0
[]
+13.5 +11.0 85 +11 +13 1016.0 1015.6 +11.7 +13.9
07 15.06 З 8 20 км 4/0
[]
+13.8 +10.8 82 +11 +13 1016.1 1015.7
08 15.06 СЗ 7 20 км ясно +14.2 +10.9 81 +12 +15 1016.3 1015.8
09 15.06 ЮЗ 7-10
{10}
20 км ясно +15.4 +12.4 82 +14 +17 1016.6 1016.1
10 15.06 ЮЗ 8-12
{12}
19 км 9/0
[]
+14.5 +12.1 86 +12 +14 1016.7 1016.3
11 15.06 ЮЗ 8 10 км 10/0
[]
+13.6 +11.5 87 +11 +12 1016.8 1016.4
12 15.06 ЮЗ 7-10
{11}
20 км 3/0
[]
+15.0 +12.1 83 +13 +16 1016.5 1016.0
13 15.06 ЮЗ 7 20 км ясно +15.6 +12.2 80 +14 +17 1016.3 1015.9
14 15.06 ЮЗ 7-11
{11}
20 км ясно +15.7 +12.2 80 +14 +16 1016.1 1015.7
15 15.06 ЮЗ 6-9
{10}
20 км 6/0
[]
+15.5 +12.3 81 +14 +15 1016.1 1015.7
16 15.06 З 5 20 км 1/0
[]
+14.7 +11.9 83 +13 +15 1016.1 1015.7
17 15.06 З 2 20 км ясно +15.4 +12.1 81 +15 +17 1016.1 1015.7
18 15.06 СВ 2-3
{3}
20 км ясно +15.6 +12.4 81 +16 +16 1016.1 1015.7 +13.2 +17.1
19 15.06 С 5 20 км ясно +14.8 +12.0 83 +13 +13 1016.1 1015.7
20 15.06 С 4 20 км ясно +14.5 +12.0 85 +13 +13 1016.4 1015.9
21 15.06 С 3-4
{4}
20 км ясно +13.5 +11.3 87 +12 +12 1016.4 1016.0
22 15.06 С 2 20 км ясно +12.7 +11.5 92 +12 +12 1016.4 1015.9
23 15.06 С 3-3
{3}
20 км 5/0
[]
+13.1 +11.6 91 +12 +12 1016.3 1015.8
00 16.06 С 2-3
{4}
20 км 4/0
[]
+12.9 +11.6 92 +12 +12 1016.4 1015.9
01 16.06 СЗ 1 20 км ясно +11.7 +11.2 97 +11 +11 1016.5 1016.1
02 16.06 СЗ 1 20 км ясно +12.7 +12.3 97 +13 +13 1016.3 1015.8
03 16.06 С 1-2
{2}
20 км ясно +13.2 +12.2 94 +13 +14 1016.1 1015.7
04 16.06 С 2 20 км ясно +13.5 +12.0 91 +13 +15 1016.2 1015.8
05 16.06 Ю 2-2
{3}
20 км ясно +14.8 +12.1 84 +14 +19 1016.2 1015.7
06 16.06 Ю 1-2
{3}
20 км ясно +15.3 +12.2 82 +16 +24 1016.0 1015.6 +11.5 +16.1
07 16.06 ЮЗ 2-4
{4}
20 км ясно +16.5 +12.9 79 +17 +26 1016.2 1015.8
08 16.06 Ю 4 20 км ясно +16.0 +13.0 82 +15 +23 1016.1 1015.7
09 16.06 Ю 4-5
{5}
20 км ясно +15.8 +12.7 82 +15 +24 1015.9 1015.5
10 16.06 Ю 5 20 км ясно +16.7 +13.2 80 +16 +23 1015.8 1015.4
11 16.06 Ю 3 20 км ясно +16.2 +13.3 83 +16 +27 1015.3 1014.9
12 16.06 Ю 4-7
{7}
20 км ясно +16.4 +13.4 82 +16 +24 1015.0 1014.6
13 16.06 Ю 5 20 км ясно +15.8 +13.3 85 +15 +20 1014.8 1014.4
14 16.06 ЮЗ 5-7
{8}
20 км ясно +17.2 +13.3 78 +17 +21 1014.5 1014.1
15 16.06 ЮЗ 5-6
{6}
20 км ясно +16.2 +13.5 84 +15 +18 1013.9 1013.5
16 16.06 ЮЗ 4-7
{7}
20 км ясно +16.3 +13.2 82 +16 +18 1013.6 1013.2
17 16.06 ЮЗ 4 20 км ясно +15.4 +12.9 85 +14 +15 1013.1 1012.7
18 16.06 ЮЗ 4-5
{5}
20 км ясно +14.9 +12.7 87 +14 +14 1012.8 1012.3 +14.9 +17.5
19 16.06 ЮЗ 5 20 км ясно +14.7 +12.5 87 +13 +13 1012.6 1012.2
20 16.06 ЮЗ 6-8
{8}
20 км ясно +14.8 +12.2 84 +13 +13 1012.4 1012.0
21 16.06 З 6-8
{9}
15 км ясно +15.7 +12.6 82 +14 +14 1012.2 1011.8
22 16.06 З 6 20 км ясно +16.5 +12.7 78 +15 +15 1012.4 1012.0
23 16.06 З 6 20 км ясно +16.7 +11.8 73 +16 +16 1012.5 1012.1
00 17.06 З 6-7
{8}
20 км ясно +15.8 +11.5 76 +14 +14 1012.7 1012.3
01 17.06 СЗ 5 20 км ясно +15.2 +11.7 80 +14 +14 1012.6 1012.1
02 17.06 З 4-6
{7}
20 км ясно +15.1 +11.7 80 +14 +14 1012.7 1012.3
03 17.06 СЗ 5-6
{6}
20 км ясно +14.8 +12.5 86 +13 +14 1013.1 1012.6
04 17.06 СЗ 5 20 км ясно +15.4 +12.7 84 +14 +15 1013.0 1012.5
05 17.06 СЗ 3-3
{5}
20 км ясно +16.4 +12.8 79 +16 +20 1012.8 1012.4
06 17.06 ЮЗ 3-5
{5}
20 км ясно +16.4 +12.5 78 +16 +22 1012.8 1012.4 +14.5 +17.5
07 17.06 ЮЗ 4 20 км ясно +17.1 +11.9 71 +17 +23 1012.8 1012.4
08 17.06 ЮЗ 6 20 км ясно +18.1 +12.5 70 +18 +22 1013.0 1012.6
09 17.06 ЮЗ 4-8
{9}
20 км 1/0
[]
+17.1 +12.3 73 +17 +25 1012.9 1012.5
10 17.06 ЮЗ 5 20 км ясно +17.5 +13.0 75 +17 +24 1012.6 1012.2
11 17.06 ЮЗ 5 20 км 6/0
[]
+16.8 +12.8 77 +16 +21 1012.6 1012.1
12 17.06 ЮЗ 6-9
{9}
20 км 9/0
[]
+18.4 +13.0 71 +18 +21 1012.3 1011.9
13 17.06 ЮЗ 7 20 км 9/0
[]
+17.8 +13.2 74 +17 +19 1012.2 1011.8
14 17.06 ЮЗ 8-13
{13}
18 км слаб. дождь 9/0
[]
+16.2 +13.2 82 +15 +15 1012.1 1011.7
15 17.06 СЗ 13-15
{15}
20 км слаб. ливневой дождь 8/0
[]
+17.2 +14.1 82 +15 +15 1012.3 1011.9
16 17.06 ЮЗ 7 20 км в посл. час дождь 8/0
[]
+16.3 +13.6 84 +15 +15 1012.2 1011.8
17 17.06 ЮЗ 6 20 км 8/0
[]
+15.6 +12.5 82 +14 +14 1012.1 1011.7
18 17.06 ЮЗ 7-11
{11}
20 км 1/0
[]
+14.9 +12.2 84 +13 +13 1011.8 1011.4 +14.9 +18.8
19 17.06 ЮЗ 8-14
{14}
20 км 8/0
[]
+14.4 +11.8 84 +12 +12 1011.8 1011.3
20 17.06 ЮЗ 8 20 км 3/0
[]
+14.3 +11.4 83 +12 +12 1012.0 1011.6
21 17.06 ЮЗ 7-11
{13}
20 км 4/0
[]
+13.9 +11.6 86 +12 +12 1012.2 1011.8
22 17.06 ЮЗ 7 20 км ясно +13.6 +11.8 89 +11 +11 1012.4 1012.0
23 17.06 ЮЗ 7 20 км ясно +13.2 +12.0 92 +11 +11 1012.5 1012.1
00 18.06 З 5-8
{9}
20 км ясно +12.9 +12.1 95 +11 +11 1012.7 1012.3
01 18.06 ЮЗ 5-8
{8}
20 км ясно +12.9 +12.0 94 +11 +11 1012.6 1012.1
02 18.06 ЮЗ 5 18 км ясно +13.1 +12.3 95 +11 +11 1012.8 1012.4
03 18.06 ЮЗ 6-8
{8}
20 км ясно +13.7 +12.4 92 +11 +12 1012.9 1012.4
04 18.06 ЮЗ 6 20 км 1/0
[]
+14.1 +12.2 88 +12 +13 1012.9 1012.5
05 18.06 ЮЗ 5 18 км 5/0
[]
+14.3 +12.4 88 +13 +14 1013.0 1012.6
06 18.06 ЮЗ 5-7
{8}
14 км 8/0
[]
+14.8 +12.3 85 +13 +15 1013.3 1012.9 +12.8 +15.4
07 18.06 ЮЗ 6-8
{9}
17 км 1/0
[]
+16.2 +12.6 79 +15 +18 1013.5 1013.1
08 18.06 ЮЗ 6-11
{11}
16 км ясно +16.8 +12.4 75 +16 +20 1014.0 1013.6
09 18.06 ЮЗ 8-11
{12}
20 км ясно +16.6 +12.5 77 +15 +18 1014.4 1014.0
10 18.06 ЮЗ 7 20 км ясно +16.7 +12.6 77 +15 +19 1014.8 1014.4
11 18.06 ЮЗ 10-14
{14}
20 км ясно +17.1 +12.8 76 +16 +16 1014.9 1014.5
12 18.06 ЮЗ 10-14
{14}
20 км ясно +17.0 +12.3 74 +15 +16 1015.0 1014.6
13 18.06 ЮЗ 9 20 км ясно +16.6 +12.3 76 +15 +16 1015.0 1014.5
14 18.06 ЮЗ 10 20 км ясно +16.7 +12.0 74 +15 +15 1014.8 1014.4
15 18.06 ЮЗ 10-15
{16}
20 км ясно +16.4 +11.6 73 +15 +15 1014.5 1014.1
16 18.06 ЮЗ 10-15
{16}
20 км ясно +16.0 +11.8 76 +14 +14 1014.4 1014.0
17 18.06 ЮЗ 10-14
{15}
20 км ясно +15.1 +11.9 81 +13 +13 1014.3 1013.8
18 18.06 ЮЗ 9-14
{14}
20 км ясно +14.6 +12.2 86 +12 +12 1014.3 1013.9 +14.3 +17.5
19 18.06 ЮЗ 8 17 км 1/0
[]
+14.0 +12.2 89 +11 +11 1014.5 1014.1
20 18.06 ЮЗ 9 17 км ясно +13.8 +12.2 90 +11 +11 1014.5 1014.1
21 18.06 ЮЗ 8-11
{12}
16 км ясно +13.4 +12.1 92 +11 +11 1014.9 1014.5
22 18.06 ЮЗ 6-9
{11}
15 км ясно +13.1 +12.0 93 +11 +11 1015.1 1014.7

 

Местоположение метеостанции Орренгрунд (Финляндия): широта 60.27 долгота 26.44 высота над уровнем моря 5 м.

В архиве по умолчанию представлена погода в Орренгрунде за последнюю неделю. Архивные данные за месяц целиком и за предыдущие месяцы, начиная с января 2011 года, Вы можете получить, выбрав интересующий диапазон дат из раскрывающегося списка и нажав кнопку "Ввод!".


*Определитесь, кто Вы:
робот инопланетянин человек

Внимание! Время в таблицах - всемирное. Для получения местного времени необходимо прибавить поправку, которая равна 1 ч.

Смотрите также архив погоды в соседних городах и на ближайших метеорологических станциях:

Погода на Острове Ранкки (Финляндия) (31 км)
Погода в Гогланде (Ленинградская область, Россия) (37 км)
Погода в Котка Хаапасари (Финляндия) (41 км)
Погода на Эмасало (Финляндия) (45 км)
Погода в Порвоо (Финляндия) (48 км)
Погода в Килпилахти (Финляндия) (49 км)
Погода в Аньяла (Финляндия) (52 км)
Погода на Маяке Kalbadagrund (Финляндия) (56 км)
Погода в Коивуниеми (Финляндия) (74 км)
Погода в Утти Lentoportintie (Финляндия) (74 км)

Пояснения к столбцам:

Ветер - указаны скорость ветра в м/с - средняя за 10 мин, порывы в срок и между сроками (в фигурных скобках) и направление, откуда дует ветер: С - северный, СВ - северо-восточный, В - восточный, ЮВ - юго-восточный, Ю - южный, ЮЗ - юго-западный, З - западный, СЗ - северо-западный.
Видимость - горизонтальная дальность видимости в метрах или километрах. При видимости от 1 до 10 км при отсутствии осадков обычно наблюдается дымка, при ухудшении видимости до 1 км и менее - туман. В сухую погоду видимость может ухудшаться дымом, пылью или мглою.
Явления - указаны атмосферные явления, наблюдавшиеся в срок или в последний час перед сроком; фигурными скобками обозначены явления, наблюдавшиеся между сроками (за 1-3 часа до срока); квадратными скобками обозначены град или гололедные отложения с указанием их диаметра в мм.
Облачность - указаны через наклонную черту общая и нижняя облачность в баллах и высота нижней границы облаков в метрах; квадратными скобками обозначены формы облаков: Ci - перистые, Cs - перисто-слоистые, Cc - перисто-кучевые, Ac - высококучевые, As - высокослоистые, Sc - слоисто-кучевые, Ns - слоисто-дождевые, Cu - кучевые, Cb - кучево-дождевые. Подробнее классификацию облаков см. в Атласе облаков (PDF).
T - Температура воздуха - температура, измеренная на высоте 2 м над землей.
Td - Температура точки росы - температура, при понижении до которой содержащийся в воздухе водяной пар достигнет насыщения.
f - Относительная влажность воздуха - влажноcть воздуха, измеренная на высоте 2 м над землей.
Te - Эффективная температура - температура, которую ощущает одетый по сезону человек в тени. Характеристика душности погоды. При расчете учитывается влияние влажности воздуха и скорости ветра на теплоощущения человека.
Tes - Эффективная температура на солнце - температура, которую ощущает человек, с поправкой на солнечный нагрев. Характеристика знойности погоды. Зависит от высоты солнца над горизонтом, облачности и скорости ветра. Ночью, в пасмурную погоду, а также при ветре 12 м/с и более поправка равна нулю.
P - Атмосферное давление - приведенное к уровню моря атмосферное давление.
Po - Атмосферное давление - измеренное на уровне метеостанции атмосферное давление.
Tmin - Минимальная температура - минимум температуры воздуха на высоте 2 м над землей.
Tmax - Максимальная температура - максимум температуры воздуха на высоте 2 м над землей.
R - Количество осадков - Количество выпавших осадков за период времени, мм. При наведении курсора мыши на число - период времени, за который выпало указанное количество осадков.
R24 - Количество осадков - Количество выпавших осадков за 24 часа, мм.
S - Снежный покров - Высота снежного покрова, см. При наведении курсора мыши на число - состояние снежного покрова и степень покрытия местности в баллах.